Precipitable_Water
0.35 0.24 0.25 0.24 0.26 0.29 0.32 0.32 0.31 0.30 0.27 0.28 0.28 0.28 0.27 0.28 0.28 0.32 0.31 0.34 0.34 0.30 0.25 0.26 0.26 0.27 0.24 0.24 0.24 0.26 0.29 0.28 0.26 0.25 0.24 0.25 0.26 0.27 0.27 0.28 0.30 0.31 0.34 0.37 0.40 0.41 0.44 0.48 0.53 0.58 0.62 0.63 0.65 0.67 0.68 0.68 0.70 0.70 0.72 0.77 0.83 0.87 0.90 0.91 0.91 0.95 0.97 1.01 1.11 1.21 1.25 1.24 1.28 1.31 1.33 1.35 1.39 1.42 1.44 1.46 1.51 1.54 1.58 1.59 1.59 1.60
0.36 0.26 0.25 0.29 0.30 0.30 0.29 0.33 0.33 0.31 0.31 0.30 0.27 0.26 0.25 0.27 0.25 0.32 0.30 0.34 0.35 0.30 0.26 0.27 0.24 0.28 0.26 0.27 0.27 0.27 0.26 0.24 0.24 0.23 0.22 0.22 0.23 0.24 0.24 0.25 0.26 0.27 0.30 0.32 0.33 0.35 0.36 0.38 0.41 0.46 0.51 0.56 0.57 0.60 0.62 0.62 0.64 0.65 0.65 0.69 0.76 0.82 0.85 0.87 0.88 0.89 0.90 0.92 0.99 1.07 1.20 1.25 1.27 1.26 1.26 1.28 1.34 1.36 1.40 1.42 1.42 1.42 1.45 1.49 1.51 1.52
0.26 0.23 0.27 0.30 0.33 0.34 0.32 0.33 0.33 0.32 0.31 0.30 0.28 0.26 0.24 0.24 0.26 0.31 0.31 0.32 0.32 0.28 0.23 0.24 0.23 0.25 0.26 0.27 0.28 0.27 0.26 0.26 0.25 0.24 0.22 0.21 0.20 0.21 0.22 0.23 0.23 0.24 0.25 0.27 0.27 0.29 0.30 0.31 0.33 0.35 0.39 0.44 0.48 0.50 0.53 0.55 0.57 0.58 0.58 0.60 0.68 0.76 0.80 0.82 0.85 0.88 0.88 0.89 0.93 0.99 1.11 1.17 1.19 1.27 1.29 1.28 1.30 1.34 1.35 1.35 1.36 1.39 1.40 1.39 1.39 1.43
0.19 0.23 0.28 0.30 0.31 0.31 0.31 0.32 0.32 0.32 0.32 0.29 0.29 0.26 0.24 0.25 0.22 0.20 0.26 0.30 0.31 0.27 0.23 0.23 0.21 0.26 0.28 0.29 0.28 0.29 0.28 0.28 0.27 0.26 0.24 0.23 0.21 0.21 0.21 0.22 0.22 0.22 0.23 0.24 0.25 0.25 0.26 0.27 0.28 0.29 0.31 0.34 0.37 0.41 0.44 0.47 0.49 0.50 0.51 0.53 0.59 0.69 0.74 0.78 0.79 0.84 0.87 0.87 0.89 0.95 0.99 1.08 1.13 1.13 1.17 1.26 1.27 1.29 1.30 1.30 1.34 1.32 1.34 1.35 1.37 1.37
0.21 0.26 0.29 0.28 0.28 0.27 0.26 0.29 0.28 0.28 0.26 0.28 0.27 0.25 0.24 0.24 0.25 0.24 0.25 0.30 0.32 0.32 0.31 0.27 0.22 0.23 0.26 0.24 0.26 0.29 0.30 0.28 0.27 0.25 0.24 0.24 0.23 0.22 0.22 0.22 0.22 0.21 0.21 0.22 0.22 0.23 0.24 0.25 0.26 0.26 0.28 0.29 0.30 0.32 0.35 0.38 0.39 0.41 0.43 0.46 0.50 0.59 0.66 0.71 0.75 0.77 0.82 0.86 0.86 0.87 0.93 0.97 1.01 1.06 1.09 1.12 1.12 1.14 1.16 1.22 1.24 1.26 1.29 1.29 1.30 1.31
0.24 0.28 0.30 0.27 0.26 0.26 0.24 0.22 0.25 0.25 0.23 0.24 0.27 0.27 0.25 0.24 0.25 0.27 0.28 0.26 0.23 0.22 0.26 0.24 0.19 0.18 0.23 0.25 0.26 0.28 0.28 0.26 0.26 0.24 0.23 0.22 0.22 0.22 0.22 0.22 0.22 0.22 0.22 0.22 0.22 0.22 0.23 0.24 0.24 0.25 0.26 0.27 0.27 0.28 0.29 0.30 0.32 0.34 0.37 0.39 0.42 0.48 0.55 0.60 0.65 0.70 0.73 0.76 0.79 0.83 0.85 0.86 0.88 0.92 0.95 0.98 0.98 0.99 1.03 1.06 1.12 1.17 1.20 1.23 1.24 1.24
0.25 0.29 0.28 0.25 0.24 0.24 0.24 0.23 0.25 0.27 0.23 0.23 0.23 0.30 0.29 0.28 0.27 0.26 0.26 0.25 0.21 0.19 0.24 0.26 0.18 0.16 0.26 0.24 0.25 0.26 0.25 0.24 0.24 0.24 0.23 0.23 0.22 0.22 0.22 0.22 0.22 0.22 0.22 0.23 0.23 0.23 0.23 0.23 0.23 0.23 0.24 0.24 0.25 0.25 0.26 0.27 0.28 0.29 0.31 0.33 0.36 0.39 0.44 0.49 0.55 0.61 0.66 0.66 0.69 0.74 0.76 0.79 0.82 0.82 0.86 0.92 0.96 0.98 1.01 1.03 1.04 1.07 1.11 1.14 1.16 1.17
0.27 0.25 0.25 0.25 0.23 0.22 0.21 0.20 0.24 0.24 0.23 0.21 0.28 0.28 0.29 0.29 0.29 0.28 0.27 0.25 0.23 0.25 0.24 0.26 0.22 0.18 0.17 0.24 0.29 0.29 0.26 0.25 0.24 0.24 0.24 0.24 0.23 0.23 0.22 0.22 0.22 0.22 0.22 0.22 0.22 0.22 0.22 0.22 0.22 0.22 0.22 0.23 0.23 0.24 0.25 0.25 0.26 0.26 0.28 0.29 0.31 0.33 0.35 0.39 0.44 0.50 0.56 0.60 0.60 0.61 0.66 0.70 0.72 0.75 0.79 0.84 0.88 0.92 0.94 0.97 1.00 1.02 1.03 1.05 1.09 1.12
0.27 0.25 0.25 0.24 0.23 0.21 0.20 0.22 0.25 0.26 0.24 0.24 0.28 0.28 0.26 0.27 0.29 0.29 0.28 0.27 0.26 0.23 0.19 0.21 0.24 0.19 0.18 0.23 0.30 0.30 0.26 0.25 0.24 0.24 0.24 0.24 0.24 0.23 0.23 0.23 0.23 0.22 0.22 0.22 0.21 0.21 0.21 0.21 0.21 0.21 0.21 0.21 0.22 0.22 0.23 0.23 0.23 0.24 0.25 0.26 0.27 0.28 0.30 0.31 0.35 0.39 0.44 0.49 0.53 0.54 0.55 0.57 0.61 0.65 0.67 0.71 0.75 0.81 0.89 0.95 0.97 0.98 0.99 1.01 1.04 1.05
0.26 0.27 0.27 0.27 0.24 0.21 0.25 0.26 0.27 0.26 0.23 0.27 0.29 0.29 0.27 0.27 0.25 0.25 0.25 0.25 0.24 0.22 0.17 0.19 0.22 0.18 0.17 0.23 0.25 0.28 0.26 0.25 0.25 0.25 0.25 0.24 0.24 0.23 0.23 0.23 0.23 0.23 0.22 0.22 0.21 0.21 0.21 0.21 0.20 0.20 0.20 0.20 0.21 0.21 0.22 0.22 0.22 0.22 0.22 0.23 0.23 0.25 0.26 0.27 0.29 0.31 0.34 0.38 0.43 0.46 0.48 0.50 0.52 0.55 0.58 0.61 0.63 0.66 0.71 0.76 0.82 0.90 0.94 0.96 0.98 1.00
0.28 0.33 0.32 0.27 0.24 0.25 0.26 0.27 0.28 0.27 0.27 0.29 0.29 0.27 0.25 0.25 0.23 0.23 0.23 0.23 0.22 0.18 0.17 0.20 0.23 0.21 0.16 0.20 0.23 0.23 0.23 0.24 0.27 0.26 0.26 0.26 0.25 0.24 0.24 0.24 0.23 0.23 0.22 0.22 0.21 0.21 0.21 0.21 0.20 0.20 0.20 0.20 0.20 0.20 0.20 0.21 0.21 0.21 0.21 0.21 0.21 0.21 0.23 0.24 0.26 0.28 0.29 0.32 0.34 0.37 0.40 0.43 0.44 0.47 0.49 0.51 0.54 0.56 0.60 0.63 0.68 0.73 0.79 0.85 0.90 0.93
0.26 0.27 0.26 0.27 0.29 0.28 0.28 0.25 0.29 0.29 0.28 0.27 0.24 0.24 0.24 0.22 0.23 0.22 0.21 0.22 0.17 0.15 0.17 0.22 0.22 0.23 0.16 0.18 0.22 0.24 0.26 0.27 0.27 0.25 0.26 0.27 0.27 0.27 0.26 0.25 0.24 0.24 0.23 0.22 0.21 0.21 0.20 0.20 0.20 0.20 0.20 0.20 0.19 0.19 0.20 0.20 0.20 0.20 0.20 0.20 0.19 0.20 0.21 0.22 0.23 0.24 0.26 0.28 0.29 0.31 0.33 0.36 0.38 0.40 0.42 0.43 0.44 0.47 0.49 0.52 0.56 0.61 0.66 0.71 0.76 0.82
0.19 0.20 0.25 0.26 0.29 0.26 0.25 0.24 0.24 0.26 0.26 0.25 0.24 0.22 0.18 0.16 0.18 0.15 0.18 0.15 0.15 0.14 0.19 0.23 0.23 0.20 0.20 0.20 0.21 0.24 0.25 0.26 0.27 0.27 0.27 0.28 0.28 0.28 0.28 0.27 0.26 0.25 0.24 0.23 0.22 0.22 0.21 0.20 0.20 0.19 0.19 0.19 0.19 0.19 0.19 0.19 0.19 0.19 0.19 0.19 0.18 0.18 0.18 0.19 0.20 0.21 0.23 0.25 0.26 0.27 0.28 0.30 0.32 0.34 0.35 0.37 0.38 0.39 0.41 0.44 0.47 0.50 0.54 0.58 0.64 0.69
0.14 0.18 0.18 0.20 0.24 0.23 0.24 0.20 0.21 0.21 0.23 0.23 0.21 0.20 0.17 0.14 0.13 0.12 0.14 0.16 0.16 0.19 0.21 0.21 0.25 0.19 0.21 0.22 0.22 0.22 0.23 0.25 0.26 0.27 0.27 0.28 0.28 0.28 0.28 0.29 0.28 0.27 0.26 0.24 0.23 0.22 0.22 0.21 0.21 0.20 0.20 0.19 0.19 0.19 0.18 0.18 0.18 0.18 0.18 0.18 0.18 0.17 0.17 0.18 0.18 0.19 0.19 0.21 0.22 0.23 0.25 0.26 0.27 0.28 0.30 0.32 0.33 0.34 0.35 0.37 0.39 0.41 0.44 0.48 0.52 0.57
0.07 0.07 0.11 0.13 0.12 0.18 0.19 0.21 0.22 0.22 0.23 0.22 0.25 0.23 0.19 0.18 0.14 0.11 0.13 0.12 0.13 0.15 0.18 0.23 0.20 0.18 0.18 0.18 0.23 0.23 0.25 0.25 0.25 0.26 0.26 0.26 0.27 0.27 0.27 0.27 0.28 0.28 0.28 0.27 0.25 0.24 0.23 0.22 0.22 0.21 0.21 0.20 0.20 0.19 0.18 0.18 0.18 0.18 0.17 0.17 0.17 0.16 0.17 0.17 0.17 0.17 0.17 0.18 0.19 0.20 0.21 0.23 0.24 0.25 0.26 0.27 0.28 0.29 0.31 0.33 0.34 0.35 0.37 0.40 0.43 0.47
0.06 0.06 0.11 0.13 0.13 0.14 0.13 0.18 0.20 0.20 0.21 0.23 0.24 0.25 0.20 0.18 0.22 0.14 0.17 0.16 0.15 0.15 0.15 0.17 0.18 0.20 0.20 0.23 0.24 0.24 0.24 0.24 0.25 0.25 0.24 0.25 0.25 0.25 0.25 0.25 0.25 0.26 0.26 0.27 0.27 0.26 0.25 0.23 0.22 0.22 0.21 0.21 0.20 0.20 0.19 0.19 0.18 0.18 0.17 0.17 0.17 0.17 0.16 0.16 0.16 0.16 0.16 0.17 0.17 0.18 0.19 0.20 0.21 0.21 0.22 0.23 0.25 0.26 0.26 0.28 0.29 0.30 0.32 0.34 0.36 0.40
0.08 0.06 0.12 0.13 0.12 0.11 0.12 0.14 0.14 0.16 0.10 0.18 0.20 0.17 0.19 0.23 0.22 0.18 0.18 0.19 0.19 0.16 0.14 0.18 0.17 0.18 0.21 0.21 0.22 0.22 0.22 0.22 0.22 0.22 0.22 0.22 0.23 0.23 0.23 0.23 0.24 0.24 0.24 0.25 0.25 0.26 0.26 0.26 0.24 0.23 0.22 0.22 0.21 0.21 0.20 0.20 0.19 0.18 0.18 0.17 0.17 0.17 0.16 0.16 0.16 0.16 0.16 0.16 0.16 0.17 0.17 0.18 0.18 0.19 0.20 0.20 0.21 0.22 0.23 0.24 0.24 0.25 0.26 0.28 0.30 0.33
0.05 0.06 0.11 0.11 0.09 0.12 0.13 0.15 0.14 0.13 0.14 0.14 0.13 0.16 0.21 0.24 0.22 0.18 0.13 0.15 0.14 0.12 0.13 0.16 0.14 0.15 0.15 0.14 0.19 0.19 0.19 0.20 0.20 0.20 0.21 0.21 0.21 0.21 0.21 0.21 0.21 0.22 0.22 0.23 0.23 0.24 0.24 0.25 0.26 0.25 0.24 0.23 0.22 0.21 0.21 0.20 0.20 0.20 0.19 0.18 0.18 0.17 0.17 0.16 0.16 0.16 0.16 0.16 0.16 0.16 0.16 0.17 0.18 0.18 0.18 0.19 0.19 0.20 0.20 0.20 0.21 0.22 0.22 0.23 0.24 0.27
0.09 0.05 0.08 0.09 0.09 0.10 0.11 0.12 0.10 0.12 0.13 0.11 0.11 0.17 0.12 0.11 0.12 0.16 0.15 0.10 0.10 0.10 0.11 0.13 0.15 0.16 0.16 0.15 0.18 0.17 0.18 0.18 0.19 0.19 0.19 0.20 0.20 0.20 0.20 0.20 0.20 0.20 0.20 0.20 0.21 0.21 0.22 0.22 0.23 0.24 0.25 0.25 0.24 0.23 0.21 0.21 0.21 0.20 0.20 0.20 0.19 0.19 0.18 0.18 0.17 0.17 0.17 0.16 0.16 0.16 0.16 0.16 0.17 0.17 0.17 0.17 0.18 0.18 0.18 0.18 0.19 0.19 0.20 0.20 0.21 0.22
0.09 0.04 0.06 0.10 0.09 0.08 0.09 0.09 0.06 0.08 0.11 0.12 0.13 0.12 0.13 0.12 0.11 0.11 0.13 0.13 0.13 0.09 0.10 0.10 0.12 0.12 0.16 0.16 0.17 0.16 0.17 0.18 0.18 0.18 0.18 0.18 0.19 0.19 0.20 0.20 0.19 0.20 0.19 0.19 0.19 0.20 0.20 0.20 0.21 0.22 0.22 0.23 0.24 0.24 0.23 0.22 0.21 0.21 0.20 0.20 0.20 0.19 0.19 0.19 0.19 0.18 0.18 0.17 0.17 0.17 0.16 0.16 0.16 0.16 0.17 0.17 0.17 0.17 0.17 0.17 0.18 0.18 0.18 0.18 0.19 0.19
0.06 0.08 0.03 0.08 0.08 0.08 0.06 0.08 0.06 0.06 0.06 0.07 0.08 0.08 0.09 0.09 0.12 0.12 0.12 0.11 0.11 0.09 0.09 0.09 0.08 0.11 0.14 0.16 0.16 0.16 0.16 0.17 0.17 0.17 0.17 0.18 0.19 0.19 0.19 0.19 0.19 0.20 0.20 0.20 0.20 0.20 0.19 0.20 0.20 0.20 0.21 0.21 0.22 0.22 0.23 0.23 0.23 0.23 0.21 0.20 0.20 0.20 0.19 0.19 0.19 0.19 0.19 0.18 0.18 0.18 0.17 0.17 0.17 0.16 0.16 0.16 0.17 0.17 0.17 0.17 0.17 0.17 0.17 0.17 0.18 0.18
0.05 0.05 0.03 0.05 0.04 0.05 0.05 0.08 0.07 0.06 0.06 0.05 0.06 0.05 0.07 0.06 0.06 0.06 0.05 0.13 0.11 0.10 0.08 0.08 0.07 0.10 0.13 0.15 0.15 0.15 0.16 0.16 0.16 0.16 0.17 0.17 0.18 0.18 0.18 0.18 0.18 0.19 0.19 0.19 0.20 0.20 0.20 0.20 0.20 0.20 0.20 0.20 0.20 0.21 0.21 0.22 0.22 0.23 0.23 0.22 0.21 0.20 0.20 0.19 0.19 0.19 0.19 0.19 0.19 0.18 0.18 0.18 0.18 0.17 0.17 0.16 0.17 0.17 0.17 0.17 0.17 0.17 0.17 0.17 0.17 0.17
0.05 0.05 0.04 0.02 0.04 0.04 0.06 0.07 0.07 0.08 0.07 0.06 0.06 0.04 0.07 0.06 0.06 0.05 0.04 0.05 0.08 0.09 0.10 0.09 0.08 0.08 0.13 0.14 0.14 0.14 0.15 0.15 0.15 0.15 0.15 0.16 0.16 0.17 0.17 0.18 0.18 0.18 0.18 0.18 0.19 0.19 0.20 0.20 0.20 0.20 0.20 0.20 0.20 0.20 0.20 0.20 0.21 0.21 0.22 0.22 0.22 0.22 0.21 0.21 0.20 0.20 0.19 0.19 0.19 0.18 0.18 0.18 0.18 0.18 0.18 0.17 0.17 0.17 0.17 0.17 0.17 0.17 0.17 0.16 0.17 0.17
0.06 0.04 0.03 0.04 0.06 0.07 0.07 0.07 0.07 0.08 0.07 0.06 0.06 0.06 0.05 0.04 0.05 0.04 0.04 0.05 0.05 0.05 0.06 0.07 0.06 0.07 0.12 0.13 0.13 0.14 0.14 0.14 0.14 0.14 0.14 0.14 0.15 0.15 0.16 0.17 0.17 0.17 0.17 0.18 0.18 0.18 0.18 0.19 0.19 0.19 0.20 0.20 0.20 0.20 0.20 0.20 0.20 0.20 0.21 0.21 0.21 0.21 0.21 0.21 0.21 0.21 0.20 0.20 0.19 0.19 0.18 0.18 0.18 0.18 0.18 0.17 0.17 0.17 0.17 0.17 0.17 0.17 0.17 0.17 0.17 0.16
0.04 0.05 0.03 0.02 0.03 0.04 0.05 0.06 0.06 0.07 0.07 0.05 0.05 0.05 0.05 0.05 0.04 0.04 0.04 0.05 0.03 0.03 0.03 0.03 0.03 0.05 0.10 0.12 0.13 0.12 0.13 0.12 0.12 0.13 0.13 0.13 0.13 0.14 0.14 0.15 0.16 0.16 0.17 0.17 0.17 0.17 0.17 0.17 0.17 0.18 0.18 0.19 0.19 0.19 0.19 0.19 0.19 0.20 0.20 0.20 0.20 0.20 0.21 0.21 0.21 0.21 0.21 0.20 0.20 0.19 0.19 0.19 0.18 0.18 0.18 0.18 0.18 0.17 0.17 0.17 0.17 0.17 0.16 0.17 0.16 0.16
0.04 0.04 0.03 0.01 0.01 0.01 0.01 0.02 0.03 0.03 0.04 0.05 0.05 0.04 0.04 0.04 0.03 0.02 0.02 0.03 0.03 0.05 0.05 0.04 0.03 0.06 0.08 0.10 0.10 0.10 0.11 0.11 0.12 0.12 0.12 0.13 0.13 0.13 0.13 0.14 0.14 0.15 0.15 0.15 0.16 0.16 0.16 0.16 0.16 0.16 0.17 0.17 0.17 0.18 0.18 0.18 0.19 0.19 0.19 0.19 0.20 0.20 0.20 0.20 0.20 0.20 0.20 0.20 0.20 0.20 0.20 0.19 0.19 0.18 0.18 0.18 0.18 0.18 0.18 0.17 0.17 0.17 0.16 0.16 0.16 0.16
0.03 0.04 0.03 0.02 0.02 0.02 0.03 0.04 0.05 0.05 0.04 0.03 0.03 0.03 0.03 0.04 0.04 0.03 0.03 0.02 0.02 0.03 0.03 0.04 0.05 0.05 0.06 0.08 0.08 0.09 0.09 0.09 0.09 0.10 0.10 0.11 0.11 0.12 0.12 0.13 0.13 0.14 0.14 0.14 0.15 0.15 0.15 0.15 0.15 0.15 0.15 0.16 0.16 0.16 0.16 0.17 0.17 0.18 0.18 0.18 0.18 0.19 0.19 0.19 0.19 0.19 0.19 0.20 0.20 0.20 0.20 0.20 0.20 0.19 0.19 0.18 0.18 0.18 0.18 0.18 0.17 0.17 0.17 0.17 0.16 0.16
0.03 0.02 0.03 0.03 0.02 0.03 0.03 0.03 0.04 0.04 0.03 0.03 0.02 0.02 0.03 0.03 0.04 0.04 0.03 0.02 0.05 0.03 0.02 0.04 0.04 0.03 0.04 0.06 0.07 0.07 0.07 0.08 0.08 0.08 0.08 0.09 0.09 0.10 0.10 0.11 0.12 0.12 0.12 0.13 0.13 0.13 0.13 0.13 0.13 0.13 0.14 0.14 0.14 0.14 0.15 0.15 0.15 0.16 0.16 0.17 0.17 0.17 0.18 0.18 0.18 0.18 0.18 0.19 0.19 0.19 0.19 0.19 0.20 0.20 0.20 0.19 0.19 0.18 0.18 0.18 0.18 0.18 0.17 0.17 0.17 0.16
0.04 0.03 0.03 0.03 0.03 0.03 0.04 0.03 0.04 0.03 0.03 0.03 0.03 0.03 0.02 0.03 0.03 0.02 0.03 0.04 0.03 0.02 0.01 0.03 0.03 0.03 0.03 0.04 0.05 0.05 0.06 0.07 0.07 0.08 0.08 0.09 0.09 0.09 0.09 0.09 0.09 0.10 0.10 0.10 0.11 0.11 0.11 0.11 0.11 0.11 0.12 0.12 0.13 0.13 0.13 0.13 0.14 0.14 0.14 0.15 0.15 0.15 0.16 0.16 0.16 0.17 0.17 0.17 0.17 0.18 0.18 0.18 0.18 0.19 0.19 0.19 0.19 0.19 0.19 0.18 0.18 0.18 0.18 0.17 0.17 0.17
0.04 0.03 0.04 0.03 0.03 0.03 0.03 0.03 0.03 0.03 0.03 0.02 0.02 0.02 0.03 0.03 0.02 0.03 0.03 0.03 0.03 0.03 0.03 0.03 0.03 0.03 0.04 0.04 0.04 0.04 0.05 0.05 0.06 0.08 0.10 0.11 0.10 0.10 0.10 0.10 0.10 0.09 0.09 0.09 0.08 0.08 0.08 0.09 0.09 0.09 0.10 0.10 0.10 0.11 0.11 0.12 0.12 0.12 0.12 0.13 0.13 0.13 0.14 0.14 0.15 0.15 0.15 0.16 0.16 0.16 0.17 0.17 0.17 0.17 0.18 0.18 0.18 0.18 0.19 0.19 0.18 0.18 0.18 0.17 0.17 0.17
0.04 0.04 0.04 0.03 0.02 0.02 0.03 0.03 0.03 0.03 0.03 0.02 0.02 0.03 0.02 0.03 0.03 0.03 0.03 0.02 0.03 0.02 0.03 0.02 0.02 0.02 0.03 0.04 0.05 0.07 0.07 0.08 0.08 0.08 0.10 0.11 0.11 0.10 0.10 0.10 0.09 0.08 0.08 0.07 0.07 0.07 0.07 0.07 0.07 0.08 0.08 0.08 0.09 0.09 0.09 0.10 0.10 0.11 0.11 0.11 0.11 0.12 0.12 0.13 0.13 0.13 0.14 0.14 0.15 0.15 0.15 0.15 0.16 0.16 0.16 0.16 0.17 0.17 0.17 0.18 0.18 0.18 0.18 0.18 0.17 0.17
0.04 0.04 0.04 0.03 0.02 0.02 0.03 0.03 0.03 0.03 0.03 0.02 0.02 0.02 0.02 0.02 0.02 0.02 0.02 0.02 0.02 0.02 0.02 0.02 0.02 0.02 0.03 0.06 0.06 0.06 0.06 0.06 0.06 0.08 0.09 0.10 0.11 0.11 0.10 0.09 0.08 0.08 0.07 0.07 0.07 0.07 0.06 0.06 0.06 0.06 0.06 0.07 0.07 0.08 0.08 0.08 0.09 0.09 0.09 0.09 0.10 0.10 0.11 0.11 0.11 0.11 0.12 0.12 0.13 0.13 0.14 0.14 0.14 0.15 0.15 0.15 0.15 0.15 0.16 0.16 0.17 0.17 0.17 0.17 0.17 0.17
0.04 0.03 0.03 0.03 0.02 0.02 0.03 0.03 0.03 0.03 0.02 0.02 0.02 0.02 0.02 0.02 0.02 0.03 0.03 0.03 0.03 0.03 0.03 0.02 0.02 0.03 0.04 0.05 0.05 0.05 0.05 0.05 0.05 0.06 0.06 0.08 0.09 0.09 0.08 0.07 0.07 0.06 0.06 0.06 0.06 0.06 0.06 0.05 0.05 0.05 0.05 0.06 0.06 0.06 0.07 0.07 0.07 0.07 0.08 0.08 0.08 0.09 0.09 0.09 0.10 0.10 0.10 0.11 0.11 0.12 0.12 0.13 0.13 0.13 0.13 0.14 0.14 0.14 0.14 0.15 0.15 0.15 0.16 0.16 0.17 0.17
0.04 0.03 0.03 0.03 0.02 0.02 0.03 0.03 0.03 0.02 0.01 0.02 0.03 0.03 0.03 0.02 0.03 0.03 0.03 0.03 0.03 0.03 0.03 0.03 0.03 0.04 0.04 0.04 0.04 0.04 0.04 0.04 0.05 0.05 0.06 0.06 0.06 0.07 0.07 0.06 0.06 0.06 0.06 0.06 0.05 0.05 0.05 0.05 0.05 0.05 0.05 0.05 0.05 0.05 0.05 0.06 0.06 0.06 0.07 0.07 0.07 0.08 0.08 0.08 0.08 0.09 0.09 0.09 0.10 0.10 0.10 0.11 0.11 0.12 0.12 0.13 0.13 0.13 0.13 0.14 0.14 0.14 0.14 0.15 0.15 0.15
0.03 0.04 0.03 0.04 0.02 0.02 0.03 0.03 0.02 0.01 0.01 0.03 0.04 0.03 0.03 0.03 0.02 0.02 0.02 0.02 0.02 0.02 0.02 0.02 0.03 0.03 0.03 0.03 0.04 0.04 0.04 0.04 0.05 0.05 0.05 0.06 0.06 0.06 0.06 0.05 0.05 0.06 0.06 0.05 0.05 0.05 0.05 0.05 0.05 0.05 0.05 0.05 0.05 0.05 0.05 0.05 0.05 0.05 0.05 0.06 0.06 0.07 0.07 0.07 0.07 0.07 0.08 0.08 0.09 0.09 0.09 0.09 0.10 0.10 0.11 0.11 0.12 0.12 0.13 0.13 0.13 0.13 0.13 0.13 0.14 0.14
0.04 0.03 0.04 0.03 0.04 0.04 0.03 0.03 0.01 0.01 0.03 0.03 0.03 0.03 0.03 0.03 0.03 0.03 0.03 0.03 0.03 0.03 0.03 0.03 0.03 0.03 0.03 0.04 0.04 0.04 0.04 0.04 0.05 0.05 0.05 0.05 0.05 0.05 0.05 0.05 0.05 0.06 0.05 0.05 0.05 0.05 0.05 0.05 0.05 0.05 0.05 0.06 0.05 0.05 0.05 0.05 0.05 0.05 0.05 0.05 0.05 0.05 0.05 0.06 0.06 0.07 0.07 0.07 0.07 0.08 0.08 0.08 0.08 0.09 0.09 0.09 0.10 0.11 0.11 0.12 0.12 0.12 0.13 0.13 0.13 0.13
0.04 0.05 0.04 0.03 0.04 0.02 0.03 0.02 0.02 0.03 0.03 0.03 0.03 0.03 0.03 0.03 0.03 0.03 0.02 0.02 0.03 0.03 0.03 0.03 0.03 0.03 0.04 0.04 0.04 0.04 0.05 0.05 0.04 0.04 0.05 0.05 0.05 0.06 0.06 0.06 0.06 0.06 0.06 0.06 0.06 0.06 0.06 0.06 0.06 0.06 0.06 0.05 0.05 0.05 0.05 0.05 0.05 0.05 0.05 0.05 0.05 0.05 0.05 0.05 0.05 0.05 0.06 0.06 0.07 0.07 0.07 0.07 0.07 0.07 0.08 0.08 0.08 0.09 0.09 0.10 0.10 0.11 0.12 0.12 0.12 0.12
0.06 0.04 0.05 0.03 0.03 0.04 0.03 0.02 0.02 0.02 0.02 0.02 0.03 0.04 0.04 0.04 0.03 0.03 0.03 0.02 0.03 0.03 0.03 0.03 0.03 0.03 0.04 0.04 0.04 0.05 0.05 0.04 0.03 0.04 0.05 0.06 0.06 0.06 0.06 0.06 0.06 0.06 0.06 0.06 0.06 0.06 0.06 0.06 0.06 0.06 0.06 0.06 0.05 0.05 0.05 0.05 0.05 0.05 0.05 0.05 0.05 0.05 0.05 0.05 0.05 0.05 0.05 0.05 0.06 0.06 0.06 0.06 0.07 0.07 0.07 0.07 0.07 0.07 0.08 0.08 0.09 0.09 0.10 0.11 0.11 0.12
0.06 0.06 0.05 0.04 0.03 0.03 0.03 0.02 0.02 0.02 0.02 0.03 0.03 0.04 0.04 0.04 0.04 0.04 0.03 0.02 0.04 0.04 0.04 0.04 0.03 0.04 0.04 0.04 0.04 0.04 0.04 0.03 0.03 0.04 0.06 0.06 0.06 0.06 0.06 0.06 0.06 0.06 0.06 0.06 0.06 0.06 0.06 0.06 0.06 0.06 0.06 0.06 0.05 0.05 0.06 0.05 0.05 0.05 0.05 0.05 0.05 0.05 0.05 0.05 0.05 0.05 0.05 0.05 0.05 0.05 0.05 0.06 0.06 0.06 0.06 0.06 0.06 0.07 0.07 0.07 0.07 0.08 0.08 0.09 0.09 0.10
0.05 0.05 0.04 0.04 0.03 0.03 0.03 0.02 0.02 0.02 0.02 0.03 0.04 0.04 0.04 0.04 0.04 0.03 0.02 0.02 0.04 0.04 0.04 0.04 0.04 0.04 0.04 0.04 0.04 0.04 0.03 0.03 0.03 0.04 0.06 0.06 0.06 0.06 0.06 0.06 0.06 0.06 0.06 0.06 0.06 0.06 0.06 0.06 0.06 0.06 0.06 0.05 0.05 0.06 0.05 0.05 0.05 0.05 0.05 0.05 0.05 0.05 0.05 0.05 0.05 0.05 0.05 0.05 0.05 0.05 0.05 0.05 0.05 0.05 0.05 0.05 0.05 0.06 0.06 0.06 0.07 0.07 0.07 0.07 0.08 0.08
0.04 0.04 0.04 0.03 0.03 0.03 0.04 0.03 0.03 0.03 0.04 0.04 0.04 0.04 0.04 0.04 0.04 0.02 0.01 0.02 0.04 0.04 0.04 0.04 0.04 0.04 0.05 0.04 0.04 0.04 0.04 0.05 0.05 0.06 0.06 0.06 0.06 0.06 0.06 0.06 0.06 0.06 0.06 0.06 0.06 0.07 0.06 0.06 0.06 0.06 0.06 0.06 0.06 0.06 0.06 0.05 0.05 0.05 0.05 0.05 0.05 0.05 0.05 0.05 0.05 0.05 0.05 0.05 0.05 0.05 0.05 0.05 0.05 0.05 0.05 0.05 0.05 0.05 0.06 0.06 0.06 0.06 0.06 0.06 0.06 0.07
0.04 0.04 0.04 0.04 0.04 0.03 0.03 0.03 0.03 0.03 0.04 0.05 0.05 0.05 0.05 0.04 0.02 0.02 0.04 0.05 0.05 0.04 0.05 0.05 0.04 0.05 0.05 0.05 0.05 0.05 0.05 0.06 0.06 0.06 0.06 0.06 0.06 0.06 0.06 0.06 0.06 0.06 0.07 0.07 0.07 0.06 0.06 0.06 0.06 0.06 0.06 0.06 0.06 0.06 0.06 0.05 0.05 0.05 0.05 0.05 0.05 0.05 0.05 0.06 0.06 0.06 0.06 0.05 0.05 0.05 0.05 0.05 0.05 0.05 0.05 0.05 0.05 0.05 0.05 0.06 0.06 0.06 0.06 0.06 0.06 0.06
0.04 0.04 0.03 0.03 0.04 0.04 0.04 0.03 0.03 0.02 0.04 0.04 0.04 0.04 0.05 0.03 0.02 0.04 0.04 0.04 0.05 0.04 0.04 0.04 0.04 0.04 0.05 0.04 0.05 0.05 0.05 0.05 0.05 0.05 0.06 0.06 0.06 0.06 0.06 0.06 0.06 0.06 0.06 0.06 0.06 0.06 0.06 0.06 0.06 0.06 0.06 0.06 0.06 0.05 0.05 0.05 0.05 0.05 0.05 0.05 0.05 0.05 0.06 0.06 0.06 0.06 0.05 0.05 0.05 0.05 0.05 0.05 0.05 0.05 0.05 0.05 0.05 0.05 0.05 0.05 0.06 0.06 0.06 0.06 0.06 0.06
0.05 0.04 0.04 0.04 0.04 0.03 0.03 0.03 0.02 0.03 0.04 0.05 0.04 0.03 0.03 0.03 0.04 0.04 0.04 0.04 0.04 0.04 0.04 0.04 0.04 0.05 0.05 0.05 0.05 0.05 0.05 0.05 0.06 0.06 0.06 0.06 0.06 0.06 0.06 0.06 0.06 0.06 0.06 0.06 0.06 0.06 0.06 0.05 0.05 0.05 0.05 0.05 0.05 0.05 0.05 0.05 0.05 0.05 0.05 0.05 0.05 0.06 0.06 0.06 0.06 0.05 0.05 0.05 0.05 0.05 0.05 0.05 0.05 0.06 0.06 0.06 0.06 0.05 0.05 0.05 0.05 0.06 0.06 0.06 0.06 0.05
0.05 0.04 0.05 0.04 0.05 0.04 0.03 0.03 0.04 0.04 0.05 0.05 0.04 0.04 0.04 0.05 0.05 0.05 0.04 0.04 0.04 0.04 0.05 0.05 0.04 0.05 0.05 0.05 0.05 0.05 0.05 0.05 0.05 0.06 0.06 0.06 0.06 0.06 0.06 0.06 0.06 0.06 0.06 0.06 0.06 0.06 0.05 0.05 0.05 0.05 0.05 0.05 0.05 0.05 0.05 0.05 0.05 0.05 0.05 0.05 0.06 0.06 0.05 0.05 0.05 0.05 0.05 0.05 0.05 0.05 0.06 0.06 0.06 0.06 0.06 0.06 0.06 0.06 0.06 0.06 0.06 0.05 0.06 0.06 0.06 0.06
0.06 0.06 0.06 0.05 0.04 0.05 0.05 0.04 0.05 0.05 0.05 0.05 0.05 0.05 0.04 0.05 0.05 0.05 0.04 0.04 0.04 0.04 0.05 0.05 0.05 0.05 0.05 0.05 0.05 0.05 0.05 0.05 0.06 0.06 0.06 0.06 0.06 0.06 0.06 0.06 0.06 0.06 0.06 0.06 0.05 0.05 0.05 0.05 0.05 0.05 0.05 0.05 0.05 0.05 0.06 0.06 0.06 0.05 0.05 0.05 0.05 0.06 0.06 0.06 0.06 0.05 0.05 0.06 0.06 0.06 0.06 0.06 0.06 0.06 0.06 0.06 0.06 0.06 0.06 0.06 0.06 0.06 0.06 0.06 0.06 0.06
0.06 0.06 0.05 0.04 0.05 0.04 0.03 0.05 0.04 0.04 0.04 0.05 0.04 0.05 0.05 0.05 0.05 0.05 0.05 0.04 0.04 0.05 0.05 0.05 0.05 0.05 0.05 0.05 0.05 0.05 0.05 0.05 0.05 0.05 0.06 0.06 0.06 0.06 0.06 0.05 0.05 0.05 0.05 0.05 0.05 0.05 0.05 0.05 0.05 0.05 0.05 0.05 0.05 0.05 0.06 0.06 0.06 0.05 0.05 0.05 0.06 0.06 0.06 0.06 0.06 0.06 0.06 0.06 0.06 0.06 0.06 0.06 0.06 0.06 0.06 0.06 0.06 0.06 0.06 0.06 0.06 0.06 0.06 0.06 0.06 0.06
0.05 0.07 0.05 0.05 0.05 0.04 0.04 0.04 0.05 0.05 0.05 0.05 0.04 0.04 0.04 0.05 0.05 0.05 0.05 0.05 0.05 0.05 0.05 0.05 0.05 0.05 0.05 0.05 0.05 0.05 0.05 0.05 0.05 0.05 0.05 0.05 0.05 0.05 0.05 0.05 0.05 0.05 0.05 0.05 0.05 0.05 0.05 0.05 0.05 0.05 0.05 0.05 0.05 0.06 0.06 0.06 0.05 0.06 0.06 0.06 0.06 0.06 0.06 0.06 0.06 0.06 0.06 0.06 0.06 0.06 0.06 0.06 0.06 0.06 0.06 0.06 0.06 0.06 0.06 0.06 0.06 0.06 0.06 0.06 0.06 0.06
0.06 0.06 0.04 0.05 0.04 0.04 0.05 0.05 0.04 0.05 0.05 0.04 0.05 0.05 0.05 0.05 0.05 0.05 0.05 0.05 0.05 0.05 0.05 0.05 0.05 0.05 0.05 0.05 0.05 0.05 0.05 0.05 0.05 0.05 0.05 0.05 0.05 0.05 0.05 0.05 0.05 0.05 0.05 0.05 0.05 0.05 0.05 0.05 0.05 0.05 0.05 0.05 0.06 0.06 0.05 0.05 0.06 0.06 0.06 0.06 0.06 0.06 0.06 0.06 0.06 0.06 0.06 0.06 0.06 0.06 0.06 0.06 0.06 0.06 0.06 0.06 0.06 0.06 0.06 0.06 0.06 0.06 0.06 0.07 0.07 0.07
0.06 0.05 0.05 0.05 0.04 0.04 0.04 0.04 0.04 0.03 0.03 0.04 0.05 0.05 0.05 0.05 0.05 0.05 0.05 0.05 0.05 0.04 0.04 0.04 0.04 0.05 0.05 0.05 0.05 0.05 0.05 0.05 0.05 0.05 0.05 0.05 0.05 0.05 0.05 0.05 0.05 0.05 0.05 0.05 0.05 0.05 0.05 0.05 0.05 0.05 0.05 0.05 0.05 0.05 0.05 0.06 0.06 0.06 0.06 0.06 0.06 0.06 0.06 0.06 0.06 0.06 0.06 0.06 0.06 0.06 0.06 0.06 0.06 0.06 0.06 0.06 0.06 0.06 0.06 0.07 0.07 0.07 0.07 0.07 0.07 0.08
0.05 0.05 0.05 0.04 0.04 0.04 0.04 0.05 0.05 0.05 0.04 0.04 0.04 0.05 0.05 0.05 0.05 0.04 0.04 0.04 0.04 0.04 0.04 0.04 0.04 0.04 0.04 0.05 0.05 0.05 0.05 0.05 0.05 0.05 0.05 0.05 0.05 0.05 0.05 0.05 0.05 0.05 0.05 0.05 0.05 0.05 0.05 0.05 0.05 0.05 0.05 0.05 0.05 0.05 0.06 0.06 0.06 0.06 0.06 0.06 0.06 0.06 0.06 0.06 0.06 0.06 0.06 0.06 0.06 0.06 0.06 0.06 0.06 0.06 0.06 0.06 0.06 0.06 0.06 0.06 0.07 0.07 0.07 0.08 0.08 0.08
Wind_Speed
20 20 21 22 22 23 24 25 26 26 24 23 22 22 22 21 20 20 21 22 22 22 23 24 25 24 24 24 23 22 22 21 21 21 20 20 20 20 20 21 21 21 22 24 24 24 25 25 25 26 26 27 26 26 26 26 27 27 28 28 29 29 29 29 30 30 31 33 33 33 31 30 30 29 28 26 26 25 22 21 21 22 22 22 22 22
19 20 22 22 22 23 24 24 25 26 26 25 24 24 24 23 21 20 21 22 22 22 23 24 25 25 25 24 23 22 22 22 23 22 22 21 21 21 21 21 21 22 22 23 23 23 24 24 25 26 26 26 27 26 26 26 26 27 27 27 28 28 28 28 28 29 30 31 32 33 32 30 29 29 29 28 28 26 24 22 22 21 20 21 23 23
19 21 22 22 22 23 22 22 23 24 25 25 25 25 26 25 24 23 23 23 23 23 24 25 24 24 25 25 24 23 23 22 22 22 22 22 21 21 21 21 21 22 22 22 22 22 22 23 23 24 25 25 26 26 26 26 26 26 26 27 27 28 28 28 27 27 29 29 30 31 32 31 30 28 28 27 28 27 26 24 24 23 22 22 22 24
19 20 20 21 20 21 22 22 22 22 23 24 25 25 26 26 25 25 25 25 25 25 25 25 25 25 26 26 25 24 23 23 22 21 21 22 22 22 22 22 21 21 22 22 22 22 22 22 22 23 23 24 25 25 26 26 26 26 26 26 27 27 27 28 27 27 28 28 29 30 31 32 32 30 29 27 27 27 27 26 25 25 25 25 24 24
19 19 19 20 19 20 21 22 23 23 23 24 25 26 26 25 25 25 25 24 24 25 25 24 25 27 29 28 27 25 24 24 24 23 22 22 22 22 22 22 22 22 22 22 22 22 22 21 22 22 22 23 23 24 25 25 25 26 25 25 26 26 27 27 28 27 27 28 28 29 30 32 33 32 31 30 29 28 28 28 28 27 26 26 26 26
20 20 20 20 19 20 20 21 22 22 23 24 24 25 27 27 25 24 25 24 24 25 25 24 25 27 28 28 28 27 27 26 26 25 24 23 23 23 23 23 23 23 23 23 22 22 22 22 22 22 22 22 22 23 24 24 25 25 25 24 25 25 26 27 27 27 27 27 28 28 29 30 32 33 33 32 32 32 30 30 30 29 28 28 27 27
19 19 20 20 20 20 21 22 21 21 23 22 22 23 25 26 26 25 25 25 25 26 25 25 26 26 26 27 28 28 28 28 27 26 26 25 24 24 24 24 24 24 24 24 23 23 23 22 22 22 22 22 22 22 23 24 24 24 24 24 24 25 25 26 26 27 27 27 27 28 28 29 30 31 32 33 33 33 33 32 31 31 30 30 30 29
19 19 19 20 21 22 22 23 22 22 22 22 22 22 21 22 24 25 26 26 26 26 26 27 28 28 27 27 27 27 28 28 28 28 27 26 25 25 25 25 25 25 25 25 24 24 23 23 23 22 22 22 22 23 23 23 23 23 23 23 24 24 25 25 25 26 26 27 27 27 28 29 29 30 31 32 33 33 34 34 33 33 33 32 32 31
17 16 17 19 20 21 22 22 22 22 22 22 22 22 21 21 22 23 24 26 26 26 28 29 28 28 28 27 27 27 28 29 29 28 28 27 26 26 26 26 25 25 25 25 25 24 24 23 23 23 23 23 23 23 23 23 23 23 23 23 23 24 25 25 25 25 25 26 26 27 27 28 29 30 31 31 32 32 33 34 34 35 34 34 33 33
15 15 16 16 17 19 21 22 22 22 23 23 23 23 23 22 23 23 24 25 25 27 30 30 28 27 27 27 28 28 29 30 29 28 27 26 25 26 26 26 26 26 26 26 25 25 24 24 23 24 24 23 23 23 23 23 23 23 23 23 23 23 24 25 25 25 25 26 26 27 27 28 28 29 30 30 31 32 32 33 34 34 35 35 34 34
15 14 14 14 16 18 20 21 22 22 23 24 24 23 23 24 24 24 25 25 25 28 31 30 28 27 27 26 27 28 29 30 29 28 27 26 26 26 26 26 26 27 27 27 26 25 25 25 24 24 24 24 24 24 24 24 24 24 24 24 23 24 24 25 25 25 26 26 26 27 27 28 28 28 29 29 30 31 32 33 33 34 35 35 35 35
14 14 14 14 15 16 18 19 19 20 22 22 23 23 23 23 23 23 24 24 25 28 29 28 27 28 28 27 26 26 27 27 27 27 27 26 26 26 26 26 27 27 27 27 27 27 26 26 25 25 25 25 25 25 25 25 25 25 25 24 24 24 24 25 25 25 26 26 26 27 27 28 28 29 29 29 29 30 31 32 33 33 34 34 35 35
14 14 15 15 14 14 16 17 16 17 18 19 21 21 21 20 20 21 22 23 25 27 26 25 27 27 28 27 26 26 26 26 26 26 26 26 25 26 26 27 27 28 28 28 28 27 27 27 26 26 26 26 26 26 26 26 26 26 26 26 25 25 25 25 25 26 26 26 26 27 27 28 28 29 29 30 30 30 30 31 32 33 33 34 34 35
14 14 15 15 15 15 15 15 14 15 16 16 18 19 20 20 20 21 22 21 23 25 24 24 25 25 25 26 27 26 26 25 25 25 25 25 25 26 26 26 27 28 28 28 28 28 28 27 27 27 27 27 27 27 27 27 27 27 27 27 27 26 26 26 26 26 26 27 27 27 27 28 28 28 29 29 30 30 30 30 31 32 32 33 33 34
15 15 15 15 15 15 14 14 14 15 16 16 16 17 19 20 20 21 20 20 20 21 22 23 23 24 24 25 26 25 25 25 25 25 26 25 26 26 26 26 27 27 28 29 29 28 28 28 28 28 28 27 28 28 28 28 28 28 28 28 28 28 28 28 28 28 28 28 28 28 28 28 28 29 29 29 29 30 30 31 31 31 32 32 33 33
14 14 15 14 15 15 14 14 15 16 16 16 16 17 18 19 21 21 21 21 21 20 21 22 22 23 23 24 25 24 24 25 25 26 26 26 26 26 26 26 27 27 28 28 29 29 29 28 28 28 28 28 28 28 28 29 29 29 29 29 29 29 29 29 29 29 29 29 30 30 30 29 29 29 30 30 30 29 30 31 31 32 32 32 32 33
12 13 14 14 14 14 14 15 16 16 17 17 16 16 18 19 19 21 23 23 22 22 23 23 23 23 23 24 25 25 25 25 26 26 26 26 26 26 27 27 27 27 27 28 29 29 29 29 29 29 29 29 29 29 29 29 29 29 30 30 30 30 30 30 30 30 30 31 31 31 31 31 31 31 31 31 31 31 30 30 31 32 32 32 32 33
11 12 13 14 14 13 14 16 15 15 16 17 16 17 18 18 17 19 20 20 21 24 25 25 25 25 24 25 26 27 26 26 27 27 27 27 26 26 27 27 27 28 28 28 28 28 28 29 29 30 30 30 30 30 30 30 30 30 30 31 31 31 31 31 31 31 32 32 32 32 33 33 33 33 33 33 33 33 32 31 31 32 32 33 33 33
11 12 12 13 13 13 13 15 15 15 16 16 17 18 17 16 17 17 18 19 21 23 23 25 26 24 24 25 26 27 27 26 27 27 27 27 27 27 27 27 28 28 28 29 28 28 29 29 29 30 30 31 31 31 31 31 31 31 31 31 32 32 32 32 32 33 33 33 33 33 34 34 34 35 35 35 35 34 34 33 33 32 33 33 34 34
12 11 12 13 14 13 13 13 14 16 16 16 17 17 17 17 18 18 18 18 19 20 21 23 24 22 22 24 26 26 26 26 26 27 27 26 26 27 28 28 29 29 29 29 29 29 29 29 29 30 30 31 31 32 32 32 32 32 32 32 32 33 33 33 33 33 34 34 34 34 35 35 35 35 36 36 36 36 36 35 35 34 34 34 34 35
12 11 12 13 14 14 13 13 14 15 16 16 16 17 17 18 19 19 20 20 19 20 21 22 22 21 22 24 25 26 26 26 26 26 25 25 25 26 27 28 29 29 29 30 30 30 30 30 30 30 31 31 32 32 33 33 33 34 34 34 34 34 34 34 34 34 35 35 35 35 36 36 36 36 36 37 37 37 37 37 37 37 36 36 35 35
11 11 12 13 13 13 13 14 15 16 16 16 16 17 18 18 18 19 20 20 20 21 21 22 23 22 22 24 24 24 25 26 26 25 25 25 26 26 27 28 28 29 30 30 30 31 31 31 31 31 32 32 32 33 33 33 34 34 35 35 35 35 35 35 35 36 36 36 36 36 37 37 37 37 37 38 38 38 38 38 38 38 38 38 37 37
11 12 12 13 12 12 12 14 15 16 15 15 15 17 17 18 17 18 20 20 20 22 21 22 24 24 25 26 25 24 25 26 25 25 26 26 26 27 28 28 29 29 30 31 31 31 32 32 33 33 33 33 33 34 34 34 35 35 35 36 36 36 37 37 37 37 37 37 37 38 38 38 38 38 38 38 39 39 39 39 39 39 39 39 39 39
11 11 12 12 11 11 12 13 14 14 14 14 14 16 16 16 17 18 21 21 22 24 23 23 25 25 26 27 26 24 25 26 26 27 27 28 28 29 29 30 30 31 31 32 32 32 33 33 33 34 34 35 35 35 35 36 36 36 36 37 37 37 38 38 38 39 39 39 39 39 39 39 39 39 39 39 39 40 40 40 40 40 40 40 40 40
11 10 11 11 11 12 12 12 12 12 13 13 14 15 15 16 17 19 20 21 22 24 23 24 25 25 26 27 27 26 27 28 28 29 29 30 30 30 31 32 32 33 33 34 34 34 34 34 34 35 35 36 36 37 37 37 38 38 38 38 38 39 39 39 40 40 40 40 40 40 40 40 40 40 40 40 40 40 40 41 41 41 41 41 41 41
11 11 11 11 11 12 12 11 12 13 14 14 15 16 16 17 18 19 20 20 22 22 23 25 26 25 27 28 28 29 30 30 30 30 31 31 31 32 32 33 34 35 35 35 36 36 36 36 36 36 36 37 37 38 38 39 39 39 40 40 40 40 41 41 41 41 41 42 42 42 42 42 42 42 42 42 42 42 42 42 42 42 42 42 42 42
11 11 11 10 11 12 12 12 13 14 15 16 17 18 18 19 18 18 19 20 21 23 25 27 26 27 29 29 30 30 31 32 32 32 33 33 33 33 34 34 35 36 36 37 37 38 38 38 38 38 38 38 38 39 39 40 40 41 41 41 42 42 42 43 43 43 43 43 44 44 44 44 44 44 44 43 43 43 43 43 43 43 43 43 43 43
10 11 11 11 11 12 13 14 15 15 16 17 18 19 19 19 19 19 20 21 21 23 26 25 25 28 29 29 30 32 32 34 35 35 36 36 36 36 36 36 37 37 38 38 39 39 39 39 40 40 40 40 40 40 41 41 42 42 42 43 43 43 44 44 44 45 45 45 45 45 45 45 45 45 45 45 45 45 45 45 45 45 45 45 45 45
10 11 12 12 12 13 14 14 14 15 17 18 18 19 20 20 21 21 22 23 23 25 27 27 28 31 31 31 33 34 35 36 37 38 38 37 36 37 37 37 38 38 39 39 40 40 41 41 41 42 42 42 42 43 43 43 44 44 44 44 44 45 45 45 46 46 46 46 47 47 47 47 47 47 47 47 47 47 47 46 46 46 46 46 46 46
11 10 11 12 13 14 15 14 15 16 17 18 19 20 20 21 22 23 24 24 25 28 29 30 32 34 32 32 33 33 34 35 36 36 36 35 36 36 37 38 39 39 40 40 41 42 42 42 43 43 43 44 44 45 45 45 45 46 46 46 46 46 47 47 47 47 47 48 48 48 48 48 48 48 49 49 49 49 48 48 48 48 48 48 48 48
11 10 11 12 13 14 15 15 16 16 18 20 20 20 21 21 22 23 24 24 25 28 29 30 32 32 30 29 30 30 30 31 32 32 33 34 36 37 37 39 39 40 41 41 42 42 42 43 43 43 44 44 45 45 46 47 47 47 47 48 48 48 48 48 48 49 49 49 49 49 50 50 50 50 50 50 50 50 50 50 50 50 50 50 50 50
11 11 12 12 13 14 15 16 17 18 19 21 21 20 20 20 20 21 21 22 23 26 27 28 30 30 28 27 28 29 29 30 31 31 32 35 36 37 38 39 39 40 40 41 42 42 43 43 44 44 45 45 46 46 47 47 48 48 48 49 49 49 50 50 50 50 50 50 51 51 51 51 51 51 51 51 51 51 51 52 52 52 52 52 52 52
12 12 12 12 13 14 15 16 17 18 19 18 18 18 18 18 20 21 21 22 23 24 26 27 28 28 27 27 29 30 30 31 32 32 33 34 35 36 37 38 38 39 39 40 41 42 42 43 43 44 45 46 46 47 47 48 48 49 49 49 50 50 50 51 51 51 51 51 52 52 52 52 52 52 52 52 53 53 53 53 53 53 53 53 54 54
12 13 13 13 13 14 16 17 17 17 16 16 17 18 18 18 20 21 22 23 24 25 26 28 28 28 29 30 31 30 30 31 31 31 32 33 34 36 37 37 37 38 39 39 40 40 41 42 43 44 44 45 46 47 48 48 49 49 50 50 50 50 51 51 51 52 52 52 52 53 53 53 53 53 53 54 54 54 54 54 54 54 54 54 55 55
12 13 14 13 13 15 16 16 16 15 15 17 19 20 19 19 20 22 23 24 25 26 28 29 30 30 31 31 29 28 29 30 31 32 33 33 34 35 36 36 36 37 38 38 38 39 40 41 42 43 44 45 46 47 47 48 49 49 50 50 51 51 51 51 52 52 52 52 53 53 53 54 54 54 55 55 55 55 55 55 55 55 56 56 56 56
13 13 14 14 14 15 15 14 14 17 19 20 20 20 19 19 20 22 23 24 25 26 27 28 29 29 29 28 27 28 29 30 31 33 33 33 34 34 34 35 35 36 37 37 37 38 39 40 41 42 43 44 45 46 47 47 48 48 49 50 50 51 51 51 52 52 53 53 53 53 53 54 55 55 56 56 56 56 56 57 57 57 57 57 57 57
13 14 14 14 14 14 15 16 17 20 21 19 18 17 18 19 20 21 23 24 25 27 28 28 28 29 28 26 27 28 29 30 31 31 31 31 31 31 32 32 33 34 34 35 36 37 38 40 41 42 42 43 44 45 46 46 47 47 48 49 49 50 50 51 52 52 53 53 53 54 54 55 55 56 56 56 57 57 57 58 58 58 59 59 59 59
14 14 14 14 14 14 15 17 18 19 18 17 16 17 18 20 21 22 25 27 26 27 28 27 27 27 26 25 26 27 27 28 29 28 27 28 28 29 29 30 31 32 33 35 36 37 39 40 41 41 42 43 44 45 45 45 46 46 47 48 48 49 49 50 51 51 52 52 53 54 54 55 56 56 57 57 57 58 58 58 59 59 59 60 61 61
15 15 14 14 15 15 15 16 16 17 18 17 17 18 19 20 22 23 26 28 26 25 25 24 25 25 24 24 24 25 25 27 27 27 27 27 28 28 29 30 31 33 34 35 36 38 39 39 40 41 42 43 43 44 44 45 45 45 46 46 47 47 48 49 49 50 50 51 52 53 54 54 55 56 57 57 58 58 59 59 60 60 61 61 62 62
14 15 15 15 16 16 16 16 17 18 19 19 18 19 19 20 22 23 25 26 26 26 25 25 25 25 24 23 24 24 26 27 28 27 27 28 28 29 30 31 32 33 34 35 36 37 37 38 39 40 41 42 42 43 43 44 44 44 45 45 45 46 47 47 48 48 49 50 51 52 52 53 54 55 55 56 57 58 59 59 60 61 62 62 63 63
15 15 15 15 16 17 17 18 18 20 20 19 17 17 18 20 21 22 24 25 26 26 26 26 26 26 25 24 25 25 27 28 28 28 28 28 29 30 30 31 31 32 33 34 35 36 36 37 38 39 39 40 41 41 42 42 42 43 44 44 44 45 45 46 46 47 48 48 49 50 51 51 52 53 54 55 56 57 58 58 59 61 61 62 63 64
14 14 14 15 16 16 17 18 20 21 20 17 16 17 18 20 22 23 25 26 27 27 27 26 27 27 26 26 27 27 28 28 28 28 28 29 29 29 30 30 31 32 33 34 34 35 35 36 37 37 38 38 39 39 39 40 40 41 41 42 43 43 44 44 45 46 46 47 47 48 49 50 51 52 53 54 55 56 57 58 59 60 60 61 62 63
13 13 14 15 15 15 16 17 18 19 19 16 16 19 20 21 23 25 26 27 27 28 28 27 28 28 27 27 28 28 28 28 28 28 28 29 29 29 30 30 31 32 32 33 34 34 35 35 36 36 37 37 37 37 37 37 38 39 39 40 41 41 41 42 43 44 45 46 46 47 48 49 50 51 52 53 54 56 57 57 58 59 60 61 61 62
14 14 15 15 15 14 15 16 17 19 19 17 17 21 22 23 24 26 27 28 28 28 28 28 28 28 28 28 28 28 27 28 28 28 28 29 29 29 29 30 30 31 32 32 33 33 34 34 35 35 35 35 35 35 35 35 36 37 37 38 38 38 39 40 41 42 43 44 45 46 47 48 49 50 51 53 54 55 56 57 57 58 59 59 60 61
15 15 15 16 17 16 18 19 19 19 19 19 20 22 23 24 25 26 27 29 29 28 28 28 28 29 29 29 28 27 27 27 27 27 27 28 28 28 28 29 29 30 30 31 31 32 32 33 33 33 34 34 34 33 33 33 34 35 35 35 35 36 37 38 38 39 41 42 43 44 45 46 48 49 50 51 52 53 54 55 56 57 57 58 58 59
16 16 16 17 18 20 21 21 21 21 21 21 23 24 24 25 26 27 28 29 29 29 29 29 28 29 29 28 28 28 27 27 27 27 26 26 27 27 27 27 28 28 29 29 30 30 30 30 31 31 32 32 32 31 31 31 32 32 33 32 33 34 35 36 37 37 38 39 40 41 42 43 45 46 47 48 49 50 52 53 54 55 55 56 57 58
17 16 16 17 18 19 20 20 19 20 21 21 23 24 26 27 27 28 29 29 30 30 30 29 29 29 28 28 28 27 27 27 27 26 26 25 26 26 26 26 27 27 27 28 28 28 28 28 29 29 29 30 29 29 29 29 30 30 30 31 31 32 33 34 34 35 36 37 37 38 39 41 42 43 44 45 47 48 49 50 51 52 53 54 55 56
16 16 16 17 18 18 20 21 21 22 22 22 23 25 26 27 27 28 29 29 29 29 29 29 28 28 28 28 27 27 27 27 26 26 25 25 25 25 25 25 26 26 26 26 26 26 26 26 27 27 27 27 27 26 27 28 28 28 29 29 30 31 31 32 32 33 34 35 35 36 37 38 40 41 42 43 44 45 46 48 49 50 51 52 53 54
16 16 17 17 18 19 22 23 23 23 24 24 24 25 25 27 27 27 28 28 28 28 28 28 28 28 28 27 27 26 26 26 26 25 25 24 24 25 25 25 25 25 25 25 25 25 25 25 25 25 25 25 25 25 26 26 27 27 27 28 28 29 29 30 30 31 33 33 34 35 35 36 37 38 39 40 41 42 43 45 46 47 48 49 50 52
15 16 16 17 18 20 21 20 20 21 22 23 22 23 24 25 25 26 27 27 28 28 28 28 28 28 28 28 27 26 26 26 25 25 24 24 25 25 25 25 25 25 25 25 25 24 24 24 24 24 24 24 24 25 25 25 26 26 26 27 27 27 28 29 29 30 31 31 32 33 34 34 35 36 37 38 39 39 40 41 42 44 45 46 47 49
15 16 15 16 18 19 19 19 19 20 22 22 22 23 24 24 25 26 27 27 28 28 28 28 28 28 28 27 27 26 26 26 25 25 24 25 25 25 25 25 25 25 25 24 24 24 24 24 24 24 24 24 24 24 24 25 25 25 25 26 26 26 27 27 28 28 29 29 30 31 32 33 34 34 35 36 36 36 37 38 39 40 41 43 44 45
Wind_Direction
243 245 246 246 246 245 244 244 245 246 249 251 251 251 251 249 248 246 243 243 241 242 242 242 243 241 239 241 241 241 240 240 241 242 244 245 246 247 247 248 248 248 249 250 250 250 251 251 251 250 249 250 252 253 254 255 255 254 253 252 251 249 248 248 247 247 246 244 243 244 244 243 242 241 238 237 236 233 235 238 235 234 236 235 233 236
247 247 248 247 247 247 246 245 246 245 247 250 250 251 251 249 249 249 246 246 246 246 244 243 244 243 240 241 243 243 244 246 245 244 244 245 246 248 248 249 249 249 250 251 252 252 252 252 252 251 251 251 252 253 254 255 255 254 253 252 251 249 247 247 248 248 247 246 244 242 242 242 242 242 240 238 235 235 238 240 237 234 235 234 232 235
251 250 251 250 250 249 248 249 249 247 247 248 249 249 250 249 248 250 249 248 248 247 247 248 246 244 243 244 245 246 247 248 248 246 246 246 247 248 249 250 250 250 251 252 253 254 254 254 254 253 252 252 251 252 253 253 254 254 253 252 250 249 247 246 247 247 247 246 244 242 240 239 240 241 241 240 238 238 240 241 240 239 240 240 238 239
250 251 252 252 252 250 249 251 251 250 249 248 248 248 249 250 249 249 250 250 250 249 248 250 248 245 245 246 246 246 245 246 247 247 247 246 246 247 249 250 251 251 252 253 253 254 255 255 255 255 254 253 252 251 251 252 253 253 253 253 251 249 248 247 246 246 246 246 245 242 240 238 238 238 239 239 239 240 241 242 243 243 245 245 244 245
252 253 254 254 253 251 251 252 251 250 250 249 248 248 248 249 249 249 248 249 251 251 248 249 249 246 244 244 245 245 244 244 245 245 247 247 247 247 249 250 251 252 252 253 253 254 255 256 256 256 256 254 253 252 252 252 252 252 253 254 252 250 248 248 248 247 246 246 245 243 241 240 239 240 240 240 241 241 241 242 243 245 247 247 247 248
255 256 257 255 253 252 251 252 251 249 251 251 248 250 249 247 247 246 246 247 249 250 247 245 249 249 245 243 245 245 244 244 245 246 247 248 249 249 251 252 252 252 252 253 254 254 255 256 256 256 256 255 254 253 252 252 252 252 252 253 252 250 248 248 249 249 247 246 247 246 244 244 244 244 244 244 245 245 243 242 242 244 246 247 248 247
256 257 257 255 255 255 253 252 254 252 250 250 251 254 252 247 244 242 245 247 248 250 248 243 246 251 247 245 245 244 244 244 245 247 247 248 250 250 251 252 253 253 253 254 254 255 255 256 256 257 257 256 255 254 253 252 252 252 252 252 251 250 248 248 248 249 248 246 247 247 247 247 247 246 246 247 247 247 247 245 243 243 245 246 248 248
259 260 259 257 255 255 254 253 256 257 251 249 254 257 256 251 247 245 246 248 249 252 251 245 245 250 250 247 246 243 244 245 245 246 248 248 249 249 251 252 253 254 254 254 255 255 256 256 256 256 256 256 255 254 253 252 253 253 252 252 251 249 249 248 248 247 247 246 246 246 247 248 248 248 249 249 249 248 249 248 248 247 247 247 247 249
260 263 263 262 257 254 255 254 256 256 250 249 255 257 254 252 251 251 249 248 251 252 251 246 244 249 250 247 247 245 245 246 245 246 247 248 249 249 250 251 252 253 254 254 255 255 256 256 256 255 255 255 255 254 254 253 253 253 252 252 252 251 249 249 249 248 247 246 246 246 246 246 247 248 249 250 250 250 250 250 251 250 251 250 249 248
259 261 264 263 259 256 256 257 255 253 250 249 255 257 254 253 252 252 250 249 251 250 248 245 242 247 251 249 247 246 248 247 245 245 247 248 249 250 251 252 253 254 254 255 255 255 256 255 255 255 254 254 254 254 253 253 253 253 253 253 253 253 251 250 250 250 249 248 247 247 247 247 247 248 248 250 251 252 252 252 252 252 252 252 251 250
259 260 263 263 262 259 258 258 253 250 252 251 253 256 256 255 252 251 251 250 251 250 248 245 242 245 250 249 246 247 251 250 245 245 247 248 249 250 251 252 253 254 254 254 255 255 255 255 255 254 254 254 254 253 253 253 253 253 253 254 254 253 252 252 252 251 251 250 250 250 251 250 250 249 249 249 250 252 252 253 254 253 253 253 253 252
261 264 264 263 267 267 262 261 256 253 254 253 252 253 254 254 252 252 251 247 248 251 249 245 241 244 247 248 248 248 253 254 248 246 247 247 249 250 251 252 253 253 254 254 254 255 255 255 255 255 254 255 255 255 254 254 254 254 254 254 254 254 254 253 253 253 252 251 251 252 253 253 253 253 252 251 251 252 252 252 253 254 254 254 254 253
263 267 267 265 268 274 268 262 259 258 257 254 250 249 250 251 250 250 249 247 249 252 252 247 242 244 248 248 249 249 251 252 249 248 247 247 248 249 250 252 252 253 253 253 254 254 255 256 256 256 255 255 255 256 256 255 255 254 255 255 255 256 255 254 254 254 253 252 252 253 253 254 254 254 254 253 253 253 252 252 253 253 254 254 255 255
263 266 271 268 267 274 271 262 259 260 260 257 252 248 248 249 249 248 247 249 252 253 253 248 243 245 248 248 250 250 250 251 250 249 248 248 248 249 250 251 252 253 253 253 253 254 255 256 256 256 256 256 256 256 256 256 256 255 256 256 256 257 257 256 255 255 254 253 253 253 253 253 254 255 255 254 254 254 254 253 253 253 254 254 255 256
263 263 269 269 266 270 270 263 259 260 261 259 254 251 250 250 250 249 249 251 255 256 253 246 243 248 250 249 251 251 250 251 250 249 249 249 249 250 251 253 254 254 254 253 253 254 254 255 256 256 257 257 257 257 257 257 257 257 257 257 257 258 258 257 257 256 256 255 254 253 253 253 254 255 255 255 255 255 255 255 254 254 254 254 256 256
264 263 266 266 266 270 268 264 264 262 260 260 257 253 254 255 252 252 254 253 254 257 254 247 247 253 252 250 250 250 250 250 249 248 248 249 250 251 253 254 255 255 255 254 254 254 254 255 255 256 256 257 257 257 257 257 258 258 258 258 258 258 258 258 258 257 257 256 256 255 255 254 254 255 255 256 257 257 257 256 256 256 255 255 256 257
266 266 267 265 266 269 268 266 267 264 259 259 260 257 257 257 254 256 258 255 253 254 252 248 249 253 252 252 252 250 250 250 249 249 249 250 251 252 253 254 254 255 255 255 255 255 255 255 255 256 256 257 258 258 258 258 258 258 258 259 259 259 259 259 259 258 258 257 257 257 257 256 256 256 256 256 257 258 259 258 257 257 257 257 257 257
271 271 273 271 267 270 271 266 265 269 265 260 260 263 262 259 257 257 257 256 254 255 253 249 249 251 251 254 255 252 251 251 250 251 250 251 252 252 253 253 254 254 254 255 255 255 256 256 256 256 256 257 257 258 258 258 258 258 258 258 259 259 260 260 259 259 259 258 258 258 258 258 258 258 258 257 257 258 259 259 259 258 258 258 258 258
278 275 275 276 272 273 276 268 263 271 273 264 260 265 263 259 260 258 255 257 257 256 257 253 251 253 253 254 256 253 251 252 252 252 251 251 252 252 253 253 253 254 254 254 255 255 256 256 256 257 256 257 257 257 258 258 258 258 258 259 259 259 260 260 259 259 259 259 258 258 259 259 259 259 259 259 258 259 259 259 260 259 259 259 259 259
280 274 273 277 276 273 276 273 268 271 273 269 265 266 263 259 261 259 257 261 260 259 260 257 254 255 256 257 258 254 251 252 253 253 254 254 254 254 253 253 253 253 253 254 254 254 255 256 256 257 257 257 258 258 258 258 258 258 259 259 259 259 260 260 260 260 260 259 259 259 259 259 260 260 260 260 260 260 260 260 260 260 260 260 260 259
281 277 273 278 281 277 275 276 274 274 274 271 268 268 267 263 261 262 261 260 261 261 262 261 258 257 257 261 261 255 252 254 254 255 256 256 256 255 255 255 254 254 254 254 254 255 255 256 256 257 257 258 258 258 258 258 258 259 259 260 260 261 261 261 261 261 261 260 260 260 260 260 260 260 260 260 260 261 261 261 261 261 261 261 261 261
284 280 278 281 286 281 276 277 278 278 276 274 271 270 270 268 265 263 262 261 262 262 262 262 262 260 259 262 262 258 255 255 254 255 257 256 256 256 256 256 256 256 256 255 255 256 256 256 257 257 257 258 258 259 259 259 259 260 260 260 261 261 261 262 262 262 262 261 261 261 261 260 260 260 261 260 260 261 261 262 262 263 262 262 262 262
285 282 281 283 286 283 279 279 281 281 277 274 273 272 271 270 267 262 262 266 267 265 264 264 262 262 262 263 264 262 260 259 257 256 256 256 256 256 256 256 256 256 256 256 256 256 257 257 257 258 258 259 259 260 260 260 260 260 260 260 261 261 261 262 262 262 262 261 261 261 261 261 261 261 261 261 261 261 261 262 263 263 263 262 263 263
289 284 283 282 283 284 283 283 283 281 278 275 275 276 274 271 267 263 262 266 267 265 265 265 263 263 264 264 265 264 264 263 262 260 258 258 258 257 257 256 256 256 256 256 256 256 257 257 258 258 259 259 260 260 261 261 261 261 261 261 261 261 262 262 262 262 263 262 262 262 261 262 262 262 262 262 262 262 262 262 262 263 263 263 263 263
290 286 285 283 281 283 284 285 285 283 281 279 277 277 276 275 272 269 267 267 267 265 261 261 264 265 265 266 266 265 265 265 264 263 262 261 260 259 259 258 258 257 257 257 257 257 257 257 258 259 259 259 260 260 261 261 261 261 261 262 262 262 262 262 262 263 263 262 262 262 262 262 262 262 262 262 262 262 262 262 262 263 263 263 263 263
289 287 287 282 279 282 282 281 282 284 284 283 281 279 279 278 276 274 273 269 268 269 265 263 266 269 269 270 269 267 267 266 265 265 264 263 262 260 260 259 259 258 258 258 258 258 258 258 258 259 259 260 260 260 261 261 261 262 262 262 263 262 263 263 263 263 263 262 262 262 262 262 262 263 262 262 262 262 262 263 263 263 263 263 262 262
288 289 290 284 281 282 283 283 286 288 287 285 285 284 283 281 278 275 275 270 269 274 273 268 269 272 271 272 271 269 268 268 266 264 264 263 262 260 260 260 260 260 260 259 259 259 259 259 259 259 260 260 261 261 262 262 262 262 262 263 263 263 263 263 263 264 263 263 262 262 262 262 263 263 262 262 263 262 262 263 263 263 263 263 262 262
288 290 292 288 287 285 284 287 290 291 289 286 287 287 285 285 282 276 273 272 274 278 275 272 274 274 271 271 272 270 269 269 267 265 263 263 262 261 261 261 261 261 261 261 261 260 260 261 261 261 261 262 262 263 263 263 263 263 263 263 263 263 264 264 264 264 264 263 263 262 262 263 263 262 262 263 263 262 262 263 263 263 262 262 262 262
291 291 292 291 292 290 288 289 291 291 290 288 288 288 287 286 283 279 275 275 275 275 274 276 278 275 274 274 274 271 270 269 268 266 264 264 263 263 262 262 261 262 262 262 262 262 262 262 262 263 263 264 264 264 264 264 264 264 264 264 264 264 264 264 264 265 264 263 263 263 263 263 262 262 263 263 263 262 263 263 263 263 263 262 262 262
295 293 292 291 292 292 292 292 291 291 292 291 290 289 288 286 284 282 281 279 277 276 277 279 279 278 278 278 276 275 274 272 271 268 264 263 263 263 262 262 261 261 261 262 262 263 263 263 263 263 264 265 265 265 265 265 265 265 265 265 264 265 265 265 265 265 264 264 264 263 263 263 263 263 263 263 263 262 263 263 263 263 263 263 262 262
299 296 294 294 295 296 298 297 294 294 295 294 293 290 288 287 286 284 283 283 281 280 282 282 281 281 282 280 279 280 279 278 276 272 266 264 263 263 262 262 262 262 262 262 262 263 263 263 263 264 265 266 266 266 266 266 266 266 266 265 265 265 265 265 265 265 264 264 264 264 264 263 263 263 263 263 263 263 263 263 263 263 263 263 263 263
302 298 296 299 298 296 299 300 298 298 298 295 294 292 288 287 288 288 287 286 285 285 286 284 283 284 284 281 281 282 280 279 278 274 271 267 265 263 263 262 262 263 263 263 263 263 263 263 264 265 266 266 266 267 266 266 266 266 266 266 266 266 266 266 265 265 265 265 264 264 264 264 264 264 264 264 264 264 263 263 263 263 263 263 263 263
301 298 298 299 297 295 297 297 298 302 303 298 295 295 292 289 290 291 290 289 287 287 287 286 285 286 285 282 281 280 278 277 276 274 273 271 267 265 265 265 265 264 264 264 264 264 264 264 265 266 266 266 266 266 266 266 266 266 266 266 266 266 266 266 265 265 265 265 265 265 264 264 264 264 264 264 264 264 264 264 264 264 263 263 263 263
300 301 300 299 298 296 295 297 302 306 304 300 300 303 302 300 297 294 293 293 292 291 290 289 289 289 287 284 283 281 279 278 277 276 275 274 271 268 268 268 267 267 266 266 265 265 265 266 266 267 267 267 267 266 266 266 266 266 266 266 266 266 266 266 265 265 265 265 265 265 264 265 265 265 265 265 265 265 264 264 264 264 264 264 263 263
300 301 301 299 300 298 298 303 308 304 299 300 303 304 305 306 303 299 298 298 296 294 293 292 291 290 288 287 286 284 283 282 280 278 276 275 272 270 269 268 268 267 267 267 266 267 267 268 268 268 268 268 268 268 267 267 267 266 266 266 266 266 266 265 265 265 265 265 265 264 264 265 265 265 265 265 265 265 264 264 264 264 264 264 264 264
301 301 301 300 300 301 302 303 301 300 301 303 302 300 302 305 304 303 302 301 299 297 295 294 293 291 290 290 289 288 286 284 282 279 277 275 273 272 270 268 268 268 267 267 267 268 268 269 269 269 269 269 269 269 269 268 268 268 267 267 267 266 266 266 265 265 265 265 265 265 265 265 265 265 265 265 265 265 265 265 264 264 264 264 264 264
300 301 303 303 300 300 301 298 298 303 308 307 306 308 309 309 309 308 306 305 305 303 300 298 297 295 293 292 291 289 288 286 284 282 279 276 275 274 272 270 269 268 268 268 268 268 269 269 270 270 270 270 270 270 270 270 269 269 269 268 268 267 266 266 266 265 265 265 265 265 265 266 266 265 265 265 265 265 265 265 265 265 265 264 264 264
301 301 303 304 302 302 304 304 306 308 307 305 307 314 316 315 316 314 310 308 308 304 300 300 300 299 297 294 292 291 290 288 286 283 280 278 276 275 274 272 271 270 269 270 270 270 270 271 271 271 271 271 271 271 271 271 270 270 270 269 269 268 267 267 266 266 266 266 266 266 266 266 266 266 266 265 265 265 265 265 265 265 265 265 265 265
307 305 303 302 300 300 302 304 305 304 303 304 308 313 316 317 318 318 313 311 312 311 308 307 306 303 300 296 294 293 291 289 287 284 280 278 277 276 275 274 273 273 272 272 272 272 272 273 272 272 272 272 272 271 271 271 271 271 270 270 269 269 268 268 267 267 267 267 267 267 267 267 266 266 266 266 266 266 266 265 265 265 265 265 265 264
307 304 301 298 297 297 298 300 301 301 303 307 310 311 314 317 321 321 316 313 315 316 315 313 309 305 302 297 294 293 290 288 288 286 283 280 279 277 276 276 275 275 274 274 274 274 274 274 274 274 274 273 273 272 272 271 271 271 270 270 270 269 269 268 268 268 268 268 268 268 267 267 267 267 266 266 266 266 266 266 266 266 266 265 265 264
303 301 298 297 296 296 295 297 300 303 305 307 308 310 316 320 320 317 313 313 315 315 313 312 309 305 301 297 294 292 290 289 289 287 284 282 281 279 279 278 278 277 277 277 277 277 276 276 276 276 275 275 274 274 273 272 272 271 271 271 270 270 270 269 269 269 269 269 269 269 268 268 268 267 267 267 267 267 267 267 267 267 266 266 266 265
302 301 300 298 298 299 297 299 304 306 308 310 312 314 319 319 315 313 314 316 316 315 312 310 306 304 301 297 294 293 292 291 290 288 285 283 282 281 281 281 280 280 279 279 279 278 278 278 278 277 277 277 276 275 274 273 273 272 272 271 271 271 271 271 270 270 270 270 270 270 270 269 269 269 268 268 268 268 268 268 268 268 267 267 267 266
301 303 301 299 301 304 304 304 308 310 311 316 320 318 315 314 314 315 317 316 314 313 312 309 306 305 302 299 297 295 294 293 291 289 287 285 284 283 282 282 282 281 281 280 280 280 279 279 278 278 278 277 277 276 275 274 274 273 273 272 272 272 272 272 272 272 272 271 271 271 271 270 270 270 270 269 269 269 269 269 269 269 268 268 268 267
300 300 301 302 303 305 303 302 306 309 308 308 313 314 311 309 313 316 317 316 315 314 312 310 307 307 305 302 300 297 295 294 292 290 289 287 286 285 284 284 283 283 282 282 281 281 280 280 279 279 278 278 277 276 276 275 275 275 274 274 274 274 274 274 274 274 273 273 273 272 272 272 272 272 271 271 271 270 270 270 270 269 269 269 268 268
301 303 304 304 303 302 302 302 306 311 310 305 307 312 313 311 313 316 316 316 315 313 312 311 309 307 306 305 302 299 297 295 293 292 290 289 287 287 286 285 285 284 284 284 283 283 282 281 280 279 279 278 278 277 277 276 275 275 275 276 276 276 276 276 276 276 275 275 275 275 274 274 274 273 273 273 272 272 271 271 270 270 270 269 268 268
304 307 308 307 306 306 306 304 304 307 308 304 304 308 312 312 314 315 315 314 314 313 313 312 310 309 308 306 303 300 298 297 296 294 292 291 289 288 288 287 287 286 286 286 286 285 284 282 281 280 280 280 279 278 278 277 276 276 277 278 278 278 278 278 278 278 278 277 277 277 277 276 276 276 275 274 274 273 272 272 272 271 270 270 269 268
304 305 305 306 308 309 310 311 311 310 310 308 307 308 310 312 314 315 315 314 314 314 313 313 312 310 309 307 304 301 299 298 297 295 293 292 291 290 289 289 289 289 289 288 288 287 286 284 283 282 281 281 280 279 279 278 277 278 279 279 280 280 280 280 280 280 280 280 280 280 280 279 279 278 277 277 276 275 274 274 273 272 271 271 270 269
305 306 306 305 305 305 307 310 312 311 311 310 310 311 312 313 314 315 315 316 316 316 315 315 313 311 309 307 305 302 300 299 297 295 295 293 292 291 291 291 291 292 291 291 290 289 288 286 285 284 283 282 282 281 280 280 280 280 281 282 282 282 282 282 282 283 283 283 283 283 282 282 281 281 280 280 279 278 277 276 275 274 273 272 271 270
308 307 307 307 306 307 308 309 309 310 311 310 309 311 313 314 315 316 317 318 318 318 317 316 314 312 310 308 306 303 301 299 297 296 295 294 293 293 292 292 293 293 293 292 291 290 289 287 286 285 284 284 284 283 282 282 283 283 284 284 285 284 284 284 285 285 285 285 285 285 285 285 284 284 284 283 282 281 279 278 277 276 274 274 273 272
307 307 308 310 310 309 310 309 311 313 314 314 315 315 316 317 318 319 319 319 318 318 317 317 315 313 311 309 307 304 302 299 298 297 295 294 294 293 293 293 293 294 294 293 292 291 289 288 287 286 286 286 285 284 284 284 285 286 286 286 286 286 286 286 287 287 287 288 288 288 288 288 288 288 287 286 285 284 283 281 280 278 277 276 275 274
297 301 304 306 308 310 312 311 311 313 314 316 319 319 319 321 321 320 319 319 319 318 318 318 317 315 313 310 307 305 302 300 298 296 295 295 294 294 293 293 292 293 293 293 292 291 289 288 287 287 287 287 286 285 284 285 286 287 288 288 288 288 288 288 288 289 289 291 291 292 292 292 291 291 291 290 289 288 286 285 284 282 281 279 278 276